RA67502 UWKE-UWKD

Flight info

Callsign RA67502
Flight time 1h 20m
Altitude 3000
Route 5535N05144E/MAMAD 5544N05124E/MAMADISH 5528N05008E/SLOBODA 5524N04933E/LAISHEVO DCT
Aircraft C172/L-SDGY/S

Departure

Time 2026-04-29 16:54
Airport Begishevo Airport (UWKE)

Arrival

Time 2026-04-29 18:15
Airport Kazan International Airport (UWKD)
Time Latitude Longitude Altitude Speed Heading
2026-04-29 16:45 55.56643 52.10406 636 ft 0 kts 138°
2026-04-29 16:46 55.56642 52.10408 636 ft 0 kts 139°
2026-04-29 16:51 55.56655 52.10302 636 ft 13 kts 244°
2026-04-29 16:51 55.56676 52.10184 635 ft 9 kts 249°
2026-04-29 16:52 55.56657 52.10097 635 ft 8 kts 287°
2026-04-29 16:52 55.56702 52.10019 634 ft 5 kts 318°
2026-04-29 16:52 55.56706 52.10011 634 ft 0 kts 316°
2026-04-29 16:52 55.56715 52.09998 634 ft 6 kts 318°
2026-04-29 16:53 55.56778 52.09887 632 ft 13 kts 293°
2026-04-29 16:53 55.56749 52.09787 632 ft 18 kts 222°
2026-04-29 16:53 55.56538 52.09386 685 ft 59 kts 226°
2026-04-29 16:53 55.56239 52.08840 870 ft 67 kts 227°
2026-04-29 16:54 55.55928 52.08286 1135 ft 61 kts 226°
2026-04-29 16:54 55.55627 52.07766 1346 ft 60 kts 226°
2026-04-29 16:54 55.55332 52.07272 1535 ft 58 kts 227°
2026-04-29 16:54 55.55033 52.06793 1722 ft 57 kts 226°
2026-04-29 16:55 55.54743 52.06340 1903 ft 55 kts 226°
2026-04-29 16:55 55.54454 52.05899 2073 ft 56 kts 227°
2026-04-29 16:55 55.54174 52.05428 2159 ft 58 kts 230°
2026-04-29 16:55 55.53875 52.04905 2228 ft 62 kts 230°
2026-04-29 16:56 55.53566 52.04359 2325 ft 62 kts 230°
2026-04-29 16:56 55.53262 52.03823 2418 ft 62 kts 230°
2026-04-29 16:56 55.52954 52.03274 2501 ft 63 kts 230°
2026-04-29 16:56 55.52649 52.02721 2587 ft 63 kts 230°
2026-04-29 16:57 55.52341 52.02156 2683 ft 64 kts 230°
2026-04-29 16:57 55.52040 52.01596 2805 ft 63 kts 230°
2026-04-29 16:57 55.51742 52.01035 2907 ft 63 kts 230°
2026-04-29 16:57 55.51429 52.00442 2970 ft 69 kts 230°
2026-04-29 16:58 55.51075 51.99764 2986 ft 79 kts 231°
2026-04-29 16:58 55.50698 51.99034 2976 ft 79 kts 231°
2026-04-29 16:58 55.50329 51.98341 2973 ft 75 kts 231°
2026-04-29 16:58 55.49968 51.97680 2973 ft 73 kts 231°
2026-04-29 16:59 55.49619 51.97046 2972 ft 71 kts 231°
2026-04-29 16:59 55.49276 51.96434 2969 ft 69 kts 231°
2026-04-29 16:59 55.48936 51.95831 2971 ft 68 kts 230°
2026-04-29 16:59 55.48598 51.95231 2972 ft 69 kts 231°
2026-04-29 17:00 55.48256 51.94616 2973 ft 72 kts 231°
2026-04-29 17:00 55.47905 51.93968 2974 ft 73 kts 235°
2026-04-29 17:00 55.47842 51.93090 2974 ft 79 kts 284°
2026-04-29 17:00 55.48205 51.92293 2977 ft 87 kts 304°
2026-04-29 17:01 55.48665 51.91574 2974 ft 89 kts 308°
2026-04-29 17:01 55.48979 51.91099 2974 ft 90 kts 307°
2026-04-29 17:01 55.49615 51.90135 2978 ft 91 kts 307°
2026-04-29 17:01 55.50102 51.89388 2973 ft 92 kts 307°
2026-04-29 17:02 55.50561 51.88619 2974 ft 89 kts 298°
2026-04-29 17:02 55.50895 51.87718 2974 ft 86 kts 289°
2026-04-29 17:02 55.51148 51.86758 2978 ft 85 kts 284°
2026-04-29 17:02 55.51378 51.85796 2975 ft 85 kts 284°
2026-04-29 17:03 55.51627 51.84841 2973 ft 88 kts 294°
2026-04-29 17:03 55.52062 51.84038 2972 ft 92 kts 306°
2026-04-29 17:03 55.52541 51.83289 2972 ft 92 kts 307°
2026-04-29 17:03 55.53023 51.82547 2973 ft 92 kts 308°
2026-04-29 17:04 55.53510 51.81799 2974 ft 91 kts 307°
2026-04-29 17:04 55.53995 51.81060 2973 ft 92 kts 308°
2026-04-29 17:04 55.54475 51.80327 2972 ft 91 kts 307°
2026-04-29 17:04 55.54959 51.79585 2973 ft 91 kts 307°
2026-04-29 17:05 55.55441 51.78852 2972 ft 92 kts 307°
2026-04-29 17:05 55.55927 51.78117 2971 ft 92 kts 307°
2026-04-29 17:05 55.56416 51.77376 2971 ft 92 kts 307°
2026-04-29 17:05 55.56902 51.76638 2970 ft 92 kts 308°
2026-04-29 17:06 55.57344 51.75850 2968 ft 87 kts 295°
2026-04-29 17:06 55.57607 51.74906 2969 ft 83 kts 283°
2026-04-29 17:06 55.57811 51.73940 2974 ft 83 kts 282°
2026-04-29 17:06 55.58012 51.72970 2974 ft 84 kts 285°
2026-04-29 17:07 55.58385 51.72129 2975 ft 90 kts 304°
2026-04-29 17:07 55.58687 51.71611 2975 ft 90 kts 306°
2026-04-29 17:07 55.59300 51.70596 2975 ft 90 kts 306°
2026-04-29 17:07 55.59761 51.69836 2974 ft 90 kts 305°
2026-04-29 17:08 55.60218 51.69084 2974 ft 90 kts 306°
2026-04-29 17:08 55.60683 51.68322 2974 ft 90 kts 306°
2026-04-29 17:08 55.61140 51.67573 2974 ft 90 kts 305°
2026-04-29 17:08 55.61603 51.66819 2971 ft 91 kts 306°
2026-04-29 17:09 55.62072 51.66056 2969 ft 91 kts 306°
2026-04-29 17:09 55.62542 51.65294 2967 ft 91 kts 306°
2026-04-29 17:09 55.63010 51.64542 2966 ft 91 kts 306°
2026-04-29 17:09 55.63478 51.63783 2966 ft 91 kts 306°
2026-04-29 17:10 55.63951 51.63016 2965 ft 91 kts 306°
2026-04-29 17:10 55.64417 51.62259 2970 ft 90 kts 306°
2026-04-29 17:10 55.64875 51.61510 2970 ft 90 kts 306°
2026-04-29 17:10 55.65346 51.60738 2972 ft 90 kts 306°
2026-04-29 17:11 55.65810 51.59975 2970 ft 91 kts 306°
2026-04-29 17:11 55.66204 51.59139 2971 ft 86 kts 291°
2026-04-29 17:11 55.66459 51.58187 2968 ft 83 kts 284°
2026-04-29 17:11 55.66678 51.57219 2967 ft 83 kts 283°
2026-04-29 17:12 55.66886 51.56266 2969 ft 83 kts 283°
2026-04-29 17:12 55.67094 51.55320 2972 ft 83 kts 283°
2026-04-29 17:12 55.67303 51.54367 2973 ft 83 kts 283°
2026-04-29 17:12 55.67444 51.53727 2972 ft 83 kts 283°
2026-04-29 17:13 55.67727 51.52447 2972 ft 83 kts 283°
2026-04-29 17:13 55.67940 51.51490 2974 ft 83 kts 283°
2026-04-29 17:13 55.68155 51.50525 2971 ft 83 kts 283°
2026-04-29 17:13 55.68368 51.49564 2969 ft 83 kts 283°
2026-04-29 17:14 55.68583 51.48599 2973 ft 83 kts 283°
2026-04-29 17:14 55.68798 51.47644 2975 ft 84 kts 287°
2026-04-29 17:14 55.69192 51.46814 2973 ft 90 kts 304°
2026-04-29 17:14 55.69649 51.46055 2973 ft 90 kts 306°
2026-04-29 17:15 55.70120 51.45292 2970 ft 91 kts 306°
2026-04-29 17:15 55.70589 51.44526 2966 ft 91 kts 306°
2026-04-29 17:15 55.71059 51.43767 2966 ft 91 kts 306°
2026-04-29 17:15 55.71549 51.43030 2964 ft 92 kts 310°
2026-04-29 17:16 55.72058 51.42339 2963 ft 92 kts 311°
2026-04-29 17:16 55.72607 51.41707 2964 ft 94 kts 317°
2026-04-29 17:16 55.72981 51.41321 2966 ft 94 kts 317°
2026-04-29 17:16 55.73740 51.40538 2965 ft 93 kts 314°
2026-04-29 17:17 55.74043 51.39653 2963 ft 79 kts 268°
2026-04-29 17:17 55.73959 51.38716 2962 ft 77 kts 253°
2026-04-29 17:17 55.73794 51.37802 2964 ft 77 kts 251°
2026-04-29 17:17 55.73618 51.36899 2962 ft 77 kts 250°
2026-04-29 17:18 55.73443 51.36004 2965 ft 77 kts 250°
2026-04-29 17:18 55.73267 51.35108 2965 ft 78 kts 250°
2026-04-29 17:18 55.73088 51.34198 2967 ft 78 kts 249°
2026-04-29 17:18 55.72904 51.33275 2970 ft 79 kts 250°
2026-04-29 17:19 55.72718 51.32350 2964 ft 80 kts 250°
2026-04-29 17:19 55.72530 51.31421 2962 ft 79 kts 249°
2026-04-29 17:19 55.72343 51.30488 2958 ft 79 kts 249°
2026-04-29 17:19 55.72159 51.29572 2962 ft 79 kts 249°
2026-04-29 17:20 55.71972 51.28645 2963 ft 79 kts 249°
2026-04-29 17:20 55.71785 51.27718 2960 ft 78 kts 250°
2026-04-29 17:20 55.71601 51.26809 2962 ft 78 kts 250°
2026-04-29 17:20 55.71418 51.25896 2964 ft 78 kts 249°
2026-04-29 17:21 55.71238 51.24995 2962 ft 78 kts 249°
2026-04-29 17:21 55.71056 51.24078 2964 ft 77 kts 249°
2026-04-29 17:21 55.70877 51.23172 2965 ft 78 kts 250°
2026-04-29 17:21 55.70697 51.22264 2965 ft 78 kts 249°
2026-04-29 17:22 55.70517 51.21355 2963 ft 78 kts 250°
2026-04-29 17:22 55.70334 51.20448 2961 ft 78 kts 249°
2026-04-29 17:22 55.70149 51.19541 2964 ft 78 kts 249°
2026-04-29 17:22 55.69964 51.18639 2968 ft 78 kts 249°
2026-04-29 17:23 55.69776 51.17724 2965 ft 78 kts 249°
2026-04-29 17:23 55.69589 51.16819 2963 ft 79 kts 249°
2026-04-29 17:23 55.69403 51.15900 2963 ft 78 kts 249°
2026-04-29 17:23 55.69209 51.14976 2964 ft 79 kts 248°
2026-04-29 17:24 55.69004 51.14074 2959 ft 79 kts 248°
2026-04-29 17:24 55.68798 51.13168 2965 ft 79 kts 248°
2026-04-29 17:24 55.68591 51.12255 2967 ft 79 kts 248°
2026-04-29 17:24 55.68384 51.11342 2958 ft 79 kts 248°
2026-04-29 17:25 55.68174 51.10422 2952 ft 79 kts 247°
2026-04-29 17:25 55.67969 51.09528 2951 ft 78 kts 248°
2026-04-29 17:25 55.67767 51.08647 2954 ft 77 kts 247°
2026-04-29 17:25 55.67565 51.07767 2956 ft 77 kts 248°
2026-04-29 17:26 55.67363 51.06887 2957 ft 77 kts 247°
2026-04-29 17:26 55.67160 51.06013 2960 ft 77 kts 248°
2026-04-29 17:26 55.66953 51.05127 2961 ft 78 kts 248°
2026-04-29 17:26 55.66811 51.04533 2963 ft 78 kts 247°
2026-04-29 17:27 55.66529 51.03336 2959 ft 78 kts 247°
2026-04-29 17:27 55.66316 51.02439 2955 ft 78 kts 247°
2026-04-29 17:27 55.66109 51.01558 2963 ft 76 kts 247°
2026-04-29 17:27 55.65907 51.00693 2984 ft 75 kts 248°
2026-04-29 17:28 55.65709 50.99834 2987 ft 76 kts 247°
2026-04-29 17:28 55.65510 50.98960 2986 ft 77 kts 248°
2026-04-29 17:28 55.65305 50.98070 2989 ft 77 kts 248°
2026-04-29 17:28 55.65101 50.97190 2987 ft 78 kts 248°
2026-04-29 17:29 55.64895 50.96303 2990 ft 78 kts 248°
2026-04-29 17:29 55.64686 50.95410 2988 ft 78 kts 247°
2026-04-29 17:29 55.64477 50.94506 2987 ft 79 kts 248°
2026-04-29 17:29 55.64337 50.93901 2987 ft 78 kts 248°
2026-04-29 17:30 55.64062 50.92710 2986 ft 78 kts 248°
2026-04-29 17:30 55.63853 50.91805 2985 ft 78 kts 248°
2026-04-29 17:30 55.63643 50.90904 2985 ft 78 kts 248°
2026-04-29 17:30 55.63431 50.90015 2986 ft 78 kts 248°
2026-04-29 17:31 55.63220 50.89133 2986 ft 78 kts 248°
2026-04-29 17:31 55.63005 50.88238 2987 ft 78 kts 247°
2026-04-29 17:31 55.62861 50.87638 2988 ft 79 kts 248°
2026-04-29 17:31 55.62575 50.86432 2986 ft 79 kts 248°
2026-04-29 17:32 55.62362 50.85524 2985 ft 79 kts 248°
2026-04-29 17:32 55.62152 50.84628 2983 ft 78 kts 248°
2026-04-29 17:32 55.61943 50.83734 2984 ft 78 kts 247°
2026-04-29 17:32 55.61738 50.82845 2988 ft 78 kts 248°
2026-04-29 17:33 55.61530 50.81939 2987 ft 78 kts 248°
2026-04-29 17:33 55.61324 50.81049 2986 ft 78 kts 248°
2026-04-29 17:33 55.61118 50.80160 2985 ft 78 kts 248°
2026-04-29 17:33 55.60976 50.79563 2984 ft 78 kts 248°
2026-04-29 17:34 55.60692 50.78375 2985 ft 77 kts 248°
2026-04-29 17:34 55.60479 50.77486 2985 ft 77 kts 248°
2026-04-29 17:34 55.60264 50.76595 2986 ft 77 kts 248°
2026-04-29 17:34 55.60049 50.75711 2983 ft 78 kts 248°
2026-04-29 17:35 55.59757 50.74520 2980 ft 79 kts 248°
2026-04-29 17:35 55.59396 50.73025 2971 ft 79 kts 248°
2026-04-29 17:35 55.59181 50.72117 2973 ft 79 kts 248°
2026-04-29 17:36 55.58972 50.71221 2973 ft 79 kts 248°
2026-04-29 17:36 55.58763 50.70320 2975 ft 79 kts 248°
2026-04-29 17:36 55.58554 50.69411 2977 ft 79 kts 248°
2026-04-29 17:36 55.58344 50.68498 2976 ft 79 kts 248°
2026-04-29 17:37 55.58134 50.67579 2976 ft 79 kts 248°
2026-04-29 17:37 55.57927 50.66679 2976 ft 79 kts 248°
2026-04-29 17:37 55.57716 50.65773 2975 ft 78 kts 248°
2026-04-29 17:37 55.57507 50.64882 2982 ft 78 kts 248°
2026-04-29 17:38 55.57296 50.63992 2979 ft 78 kts 248°
2026-04-29 17:38 55.57084 50.63110 2979 ft 78 kts 248°
2026-04-29 17:38 55.56868 50.62220 2979 ft 78 kts 247°
2026-04-29 17:38 55.56655 50.61342 2979 ft 78 kts 248°
2026-04-29 17:39 55.56439 50.60458 2977 ft 78 kts 248°
2026-04-29 17:39 55.56224 50.59571 2976 ft 78 kts 248°
2026-04-29 17:39 55.56014 50.58691 2977 ft 78 kts 248°
2026-04-29 17:39 55.55804 50.57808 2980 ft 78 kts 248°
2026-04-29 17:40 55.55597 50.56924 2979 ft 78 kts 248°
2026-04-29 17:40 55.55392 50.56038 2979 ft 78 kts 248°
2026-04-29 17:40 55.55184 50.55142 2984 ft 78 kts 248°
2026-04-29 17:40 55.54979 50.54252 2988 ft 79 kts 248°
2026-04-29 17:41 55.54771 50.53351 2988 ft 79 kts 248°
2026-04-29 17:41 55.54563 50.52456 2986 ft 79 kts 248°
2026-04-29 17:41 55.54351 50.51555 2984 ft 79 kts 248°
2026-04-29 17:41 55.54138 50.50657 2984 ft 79 kts 248°
2026-04-29 17:42 55.53923 50.49763 2985 ft 79 kts 248°
2026-04-29 17:42 55.53704 50.48871 2988 ft 78 kts 248°
2026-04-29 17:42 55.53488 50.47988 2989 ft 79 kts 248°
2026-04-29 17:42 55.53270 50.47090 3008 ft 77 kts 248°
2026-04-29 17:43 55.53059 50.46225 3014 ft 77 kts 248°
2026-04-29 17:43 55.52849 50.45356 3015 ft 77 kts 248°
2026-04-29 17:43 55.52636 50.44467 3015 ft 77 kts 248°
2026-04-29 17:43 55.52426 50.43589 3017 ft 77 kts 248°
2026-04-29 17:44 55.52218 50.42700 3015 ft 78 kts 248°
2026-04-29 17:44 55.52013 50.41812 3013 ft 78 kts 248°
2026-04-29 17:44 55.51805 50.40919 3015 ft 78 kts 248°
2026-04-29 17:44 55.51601 50.40033 3016 ft 78 kts 248°
2026-04-29 17:45 55.51396 50.39139 3017 ft 78 kts 248°
2026-04-29 17:45 55.51190 50.38250 3019 ft 78 kts 248°
2026-04-29 17:45 55.50979 50.37355 3019 ft 78 kts 248°
2026-04-29 17:45 55.50768 50.36470 3020 ft 78 kts 248°
2026-04-29 17:46 55.50552 50.35587 3019 ft 79 kts 248°
2026-04-29 17:46 55.50332 50.34689 3015 ft 79 kts 247°
2026-04-29 17:46 55.50112 50.33801 3014 ft 79 kts 247°
2026-04-29 17:46 55.49887 50.32902 3017 ft 79 kts 247°
2026-04-29 17:47 55.49668 50.32020 3019 ft 79 kts 247°
2026-04-29 17:47 55.49447 50.31116 3022 ft 79 kts 247°
2026-04-29 17:47 55.49230 50.30221 3027 ft 79 kts 247°
2026-04-29 17:47 55.49012 50.29314 3026 ft 79 kts 247°
2026-04-29 17:48 55.48801 50.28419 3024 ft 79 kts 247°
2026-04-29 17:48 55.48589 50.27520 3028 ft 79 kts 247°
2026-04-29 17:48 55.48380 50.26624 3029 ft 79 kts 248°
2026-04-29 17:48 55.48169 50.25732 3029 ft 79 kts 247°
2026-04-29 17:49 55.48029 50.25131 3028 ft 79 kts 247°
2026-04-29 17:49 55.47745 50.23934 3030 ft 79 kts 247°
2026-04-29 17:49 55.47531 50.23037 3027 ft 79 kts 248°
2026-04-29 17:49 55.47313 50.22138 3027 ft 79 kts 248°
2026-04-29 17:50 55.47092 50.21240 3024 ft 80 kts 247°
2026-04-29 17:50 55.46866 50.20333 3022 ft 80 kts 248°
2026-04-29 17:50 55.46645 50.19444 3019 ft 79 kts 247°
2026-04-29 17:50 55.46421 50.18541 3020 ft 79 kts 249°
2026-04-29 17:51 55.46282 50.17616 3027 ft 79 kts 256°
2026-04-29 17:51 55.46174 50.16667 3028 ft 79 kts 257°
2026-04-29 17:51 55.46071 50.15704 3034 ft 79 kts 257°
2026-04-29 17:51 55.45973 50.14741 3033 ft 79 kts 257°
2026-04-29 17:52 55.45884 50.13772 3009 ft 82 kts 259°
2026-04-29 17:52 55.45828 50.13100 3001 ft 81 kts 258°
2026-04-29 17:52 55.45711 50.11812 2998 ft 78 kts 258°
2026-04-29 17:52 55.45625 50.10865 2998 ft 77 kts 258°
2026-04-29 17:53 55.45535 50.09929 2995 ft 76 kts 258°
2026-04-29 17:53 55.45446 50.09008 2996 ft 75 kts 258°
2026-04-29 17:53 55.45356 50.08084 2996 ft 75 kts 258°
2026-04-29 17:53 55.45264 50.07143 2997 ft 79 kts 258°
2026-04-29 17:54 55.45169 50.06165 2996 ft 81 kts 258°
2026-04-29 17:54 55.45075 50.05187 2995 ft 81 kts 258°
2026-04-29 17:54 55.44984 50.04211 2993 ft 81 kts 258°
2026-04-29 17:54 55.44897 50.03238 2993 ft 79 kts 258°
2026-04-29 17:55 55.44814 50.02275 2996 ft 78 kts 258°
2026-04-29 17:55 55.44733 50.01328 2997 ft 78 kts 258°
2026-04-29 17:55 55.44653 50.00383 2999 ft 78 kts 258°
2026-04-29 17:55 55.44573 49.99437 3002 ft 80 kts 258°
2026-04-29 17:56 55.44486 49.98426 3000 ft 86 kts 258°
2026-04-29 17:56 55.44392 49.97354 2998 ft 89 kts 259°
2026-04-29 17:56 55.44294 49.96273 3000 ft 91 kts 258°
2026-04-29 17:56 55.44188 49.95173 2999 ft 92 kts 258°
2026-04-29 17:57 55.44079 49.94062 2999 ft 92 kts 258°
2026-04-29 17:57 55.43966 49.92944 2999 ft 93 kts 258°
2026-04-29 17:57 55.43852 49.91816 3001 ft 93 kts 258°
2026-04-29 17:57 55.43774 49.91074 3003 ft 93 kts 258°
2026-04-29 17:58 55.43619 49.89572 3003 ft 93 kts 258°
2026-04-29 17:58 55.43503 49.88424 3003 ft 93 kts 258°
2026-04-29 17:58 55.43392 49.87295 3004 ft 93 kts 258°
2026-04-29 17:58 55.43282 49.86151 3003 ft 93 kts 258°
2026-04-29 17:59 55.43176 49.85017 3003 ft 93 kts 258°
2026-04-29 17:59 55.43073 49.83891 3003 ft 93 kts 258°
2026-04-29 17:59 55.42967 49.82765 2999 ft 93 kts 258°
2026-04-29 17:59 55.42862 49.81645 3002 ft 92 kts 259°
2026-04-29 18:00 55.42757 49.80526 2997 ft 92 kts 258°
2026-04-29 18:00 55.42650 49.79415 2997 ft 92 kts 258°
2026-04-29 18:00 55.42543 49.78315 3000 ft 91 kts 258°
2026-04-29 18:00 55.42435 49.77216 3002 ft 91 kts 259°
2026-04-29 18:01 55.42358 49.76463 3003 ft 92 kts 258°
2026-04-29 18:01 55.42207 49.74983 3005 ft 92 kts 259°
2026-04-29 18:01 55.42094 49.73879 3005 ft 92 kts 259°
2026-04-29 18:01 55.41978 49.72762 3003 ft 92 kts 259°
2026-04-29 18:02 55.41868 49.71636 3003 ft 92 kts 260°
2026-04-29 18:02 55.41776 49.70524 3001 ft 92 kts 260°
2026-04-29 18:02 55.41687 49.69397 3001 ft 92 kts 261°
2026-04-29 18:02 55.41603 49.68277 3004 ft 92 kts 261°
2026-04-29 18:03 55.41523 49.67175 3004 ft 91 kts 261°
2026-04-29 18:03 55.41443 49.66056 3006 ft 91 kts 261°
2026-04-29 18:03 55.41363 49.64960 3006 ft 91 kts 261°
2026-04-29 18:03 55.41281 49.63849 3006 ft 91 kts 261°
2026-04-29 18:04 55.41201 49.62745 3008 ft 91 kts 261°
2026-04-29 18:04 55.41119 49.61630 3004 ft 91 kts 261°
2026-04-29 18:04 55.41036 49.60513 3004 ft 91 kts 261°
2026-04-29 18:04 55.40954 49.59405 3004 ft 91 kts 261°
2026-04-29 18:05 55.40873 49.58308 3009 ft 91 kts 261°
2026-04-29 18:05 55.40791 49.57189 3008 ft 91 kts 261°
2026-04-29 18:05 55.40708 49.56089 3006 ft 91 kts 261°
2026-04-29 18:05 55.40633 49.54972 3005 ft 91 kts 267°
2026-04-29 18:06 55.40937 49.53975 3007 ft 101 kts 309°
2026-04-29 18:06 55.41519 49.53236 3006 ft 104 kts 316°
2026-04-29 18:06 55.42135 49.52542 3004 ft 105 kts 317°
2026-04-29 18:06 55.42758 49.51847 3003 ft 105 kts 317°
2026-04-29 18:07 55.43377 49.51156 3007 ft 105 kts 318°
2026-04-29 18:07 55.43997 49.50457 3000 ft 106 kts 318°
2026-04-29 18:07 55.44613 49.49754 2993 ft 106 kts 317°
2026-04-29 18:07 55.45227 49.49054 2990 ft 105 kts 317°
2026-04-29 18:08 55.45844 49.48345 2989 ft 105 kts 317°
2026-04-29 18:08 55.46459 49.47630 2986 ft 105 kts 317°
2026-04-29 18:08 55.47072 49.46921 2991 ft 104 kts 318°
2026-04-29 18:08 55.47677 49.46224 2990 ft 104 kts 318°
2026-04-29 18:09 55.48296 49.45507 2990 ft 104 kts 317°
2026-04-29 18:09 55.48901 49.44809 2991 ft 104 kts 318°
2026-04-29 18:09 55.49507 49.44107 2989 ft 104 kts 318°
2026-04-29 18:09 55.50114 49.43405 2989 ft 104 kts 318°
2026-04-29 18:10 55.50723 49.42699 2987 ft 104 kts 317°
2026-04-29 18:10 55.51331 49.41994 2987 ft 104 kts 318°
2026-04-29 18:10 55.51929 49.41291 2987 ft 104 kts 317°
2026-04-29 18:10 55.52531 49.40581 2986 ft 104 kts 318°
2026-04-29 18:11 55.53124 49.39881 2914 ft 102 kts 318°
2026-04-29 18:11 55.53522 49.39407 2818 ft 103 kts 318°
2026-04-29 18:11 55.54318 49.38466 2631 ft 104 kts 318°
2026-04-29 18:11 55.54919 49.37759 2497 ft 104 kts 318°
2026-04-29 18:12 55.55505 49.37043 2347 ft 102 kts 314°
2026-04-29 18:12 55.56055 49.36255 2183 ft 102 kts 312°
2026-04-29 18:12 55.56569 49.35405 1998 ft 99 kts 307°
2026-04-29 18:12 55.57108 49.34677 1848 ft 94 kts 317°
2026-04-29 18:13 55.57597 49.33948 1607 ft 89 kts 306°
2026-04-29 18:13 55.58018 49.33190 1410 ft 84 kts 323°
2026-04-29 18:13 55.58631 49.33098 1168 ft 89 kts 335°
2026-04-29 18:13 55.59003 49.32403 951 ft 79 kts 289°
2026-04-29 18:14 55.59240 49.31530 739 ft 79 kts 292°
2026-04-29 18:14 55.59519 49.30727 565 ft 74 kts 298°
2026-04-29 18:14 55.59802 49.30006 442 ft 69 kts 298°
2026-04-29 18:14 55.60057 49.29341 400 ft 54 kts 304°
2026-04-29 18:15 55.60238 49.28881 397 ft 39 kts 305°
2026-04-29 18:15 55.60370 49.28559 395 ft 17 kts 302°
2026-04-29 18:15 55.60403 49.28563 395 ft 7 kts 55°
2026-04-29 18:15 55.60460 49.28659 396 ft 5 kts 35°
2026-04-29 18:16 55.60463 49.28663 396 ft 0 kts 33°
2026-04-29 18:17 55.60465 49.28666 396 ft 3 kts 30°
2026-04-29 18:17 55.60525 49.28738 397 ft 17 kts 33°
2026-04-29 18:17 55.60581 49.28944 400 ft 24 kts 94°
2026-04-29 18:17 55.60651 49.29230 406 ft 26 kts 32°
2026-04-29 18:18 55.60740 49.29369 407 ft 12 kts 115°
2026-04-29 18:18 55.60704 49.29501 411 ft 12 kts 60°
2026-04-29 18:18 55.60738 49.29548 410 ft 0 kts 35°